Le Raizet Airport, Guadeloupe

9:46 PM AST on June 20, 2018 (GMT -0400)
Le Raizet

Weather History for TFFR - September, 2017

Change the Weather History Date:

Monday, September 11, 2017

  Actual Average Record
Temperature  
Mean Temperature 82 °F -  
Max Temperature 88 °F 87 °F 91 °F (1998)
Min Temperature 77 °F 74 °F 70 °F (2012)
Cooling Degree Days 18    
Growing Degree Days 32 (Base 50)    
Moisture  
Dew Point 76 °F    
Average Humidity 82    
Maximum Humidity 100    
Minimum Humidity 62    
Precipitation  
Precipitation 0.00 in 0.31 in - ()
Sea Level Pressure  
Sea Level Pressure 29.93 in    
Wind  
Wind Speed 6 mph ()    
Max Wind Speed 16 mph    
Max Gust Speed -    
Visibility 6.8 miles    
Events Rain    
Averages and records for this station are not official NWS values.
T = Trace of Precipitation, MM = Missing Value Source: Averaged Metar Reports

Daily Weather History Graph

Daily Weather History Graph

Search for Another Location

Airport or City:

Astronomy

Sep. 11, 2017 Rise Set
Actual Time 5:54 AM AST 6:10 PM AST
Civil Twilight 5:32 AM AST 6:32 PM AST
Nautical Twilight 5:07 AM AST 6:57 PM AST
Astronomical Twilight 4:41 AM AST 7:23 PM AST
Moon 10:35 PM AST (9/11) 10:43 AM AST (9/11)
Length of Visible Light 13h 00m
Length of Day
12h 16m
Waning Gibbous, 68% of the Moon is Illuminated
Sep 11
Waning Gibbous
Sep 13
Last Quarter
Sep 20
New
Sep 27
First Quarter
Oct 5
Full

Hourly Weather History & Observations

Time (AST) Temp. Heat Index Dew Point Humidity Pressure Visibility Wind Dir Wind Speed Gust Speed Precip Events Conditions
12:00 AM 80.6 °F 87.1 °F 77.0 °F 89% 29.95 in - ESE 4.6 mph - N/A   Clear
12:30 AM 80.6 °F 87.1 °F 77.0 °F 89% 29.95 in 6.2 mi ESE 3.5 mph - N/A   Mostly Cloudy
1:00 AM 80.6 °F 87.1 °F 77.0 °F 89% 29.92 in 6.2 mi Variable 3.5 mph - N/A   Partly Cloudy
1:30 AM 78.8 °F - 75.2 °F 89% 29.92 in 6.2 mi ESE 10.4 mph - N/A Rain Rain
2:00 AM 78 °F - 76 °F 94% 29.93 in 11 mi SSE 3.5 mph - -   Clear
2:00 AM 78.8 °F - 77.0 °F 94% 29.92 in 6.2 mi Variable 3.5 mph - N/A   Mostly Cloudy
2:30 AM 78.8 °F - 77.0 °F 94% 29.92 in 6.2 mi Variable 2.3 mph - N/A   Scattered Clouds
3:00 AM 78.8 °F - 77.0 °F 94% 29.92 in 6.2 mi Variable 2.3 mph - N/A   Partly Cloudy
3:30 AM 78.8 °F - 77.0 °F 94% 29.92 in 6.2 mi Calm Calm - N/A   Mostly Cloudy
4:00 AM 78.8 °F - 77.0 °F 94% 29.92 in 6.2 mi Variable 2.3 mph - N/A   Scattered Clouds
4:30 AM 78.8 °F - 77.0 °F 94% 29.92 in 6.2 mi Variable 2.3 mph - N/A   Partly Cloudy
5:00 AM 78 °F - 77 °F 96% 29.93 in 10 mi West 3.5 mph - -   Clear
5:00 AM 77.0 °F - 77.0 °F 100% 29.92 in 6.2 mi West 3.5 mph - N/A   Mostly Cloudy
5:30 AM 77.0 °F - 77.0 °F 100% 29.92 in 6.2 mi Variable 2.3 mph - N/A   Mostly Cloudy
6:00 AM 77.0 °F - 77.0 °F 100% 29.92 in 6.2 mi NW 2.3 mph - N/A   Partly Cloudy
6:30 AM 78.8 °F - 77.0 °F 94% 29.92 in 6.2 mi Calm Calm - N/A   Partly Cloudy
7:00 AM 78.8 °F - 78.8 °F 100% 29.92 in 6.2 mi Variable 3.5 mph - N/A   Partly Cloudy
7:30 AM 80.6 °F 88.1 °F 78.8 °F 94% 29.95 in 6.2 mi East 3.5 mph - N/A   Partly Cloudy
8:00 AM 83 °F - 78 °F 82% 29.96 in 12 mi East 8.1 mph - -   Clear
8:00 AM 82.4 °F 92.4 °F 78.8 °F 89% 29.95 in 6.2 mi East 8.1 mph - N/A   Partly Cloudy
8:30 AM 84.2 °F 94.1 °F 77.0 °F 79% 29.95 in 6.2 mi East 8.1 mph - N/A   Partly Cloudy
9:00 AM 86.0 °F 96.9 °F 77.0 °F 74% 29.95 in 6.2 mi East 12.7 mph - N/A   Mostly Cloudy
9:30 AM 87.8 °F 99.7 °F 77.0 °F 70% 29.95 in 6.2 mi East 12.7 mph - N/A   Mostly Cloudy
10:00 AM 86.0 °F 95.1 °F 75.2 °F 70% 29.95 in 6.2 mi East 15.0 mph - N/A   Mostly Cloudy
10:30 AM 86.0 °F 95.1 °F 75.2 °F 70% 29.95 in 6.2 mi East 13.8 mph - N/A   Partly Cloudy
11:00 AM 87 °F - 77 °F 64% 29.96 in 22 mi East 13.8 mph - -   Clear
11:00 AM 86.0 °F 96.9 °F 77.0 °F 74% 29.95 in 6.2 mi East 13.8 mph - N/A   Mostly Cloudy
11:30 AM 87.8 °F 99.7 °F 77.0 °F 70% 29.95 in 6.2 mi East 13.8 mph - N/A   Mostly Cloudy
12:00 PM 87.8 °F 99.7 °F 77.0 °F 70% 29.92 in 6.2 mi ESE 13.8 mph - N/A   Mostly Cloudy
12:30 PM 86.0 °F 95.1 °F 75.2 °F 70% 29.92 in 6.2 mi ENE 12.7 mph - N/A   Mostly Cloudy
1:00 PM 86.0 °F 96.9 °F 77.0 °F 74% 29.92 in 6.2 mi East 12.7 mph - N/A   Mostly Cloudy
1:30 PM 87.8 °F 97.6 °F 75.2 °F 66% 29.92 in 6.2 mi ESE 16.1 mph - N/A   Overcast
2:00 PM 87 °F - 76 °F 62% 29.91 in 22 mi East 13.8 mph - -   Clear
2:00 PM 87.8 °F 97.6 °F 75.2 °F 66% 29.89 in 6.2 mi East 13.8 mph - N/A   Overcast
2:30 PM 87.8 °F 97.6 °F 75.2 °F 66% 29.89 in 6.2 mi East 12.7 mph - N/A   Mostly Cloudy
3:00 PM 86.0 °F 95.1 °F 75.2 °F 70% 29.89 in 6.2 mi East 12.7 mph - N/A   Mostly Cloudy
3:30 PM 86.0 °F 95.1 °F 75.2 °F 70% 29.89 in 6.2 mi ESE 11.5 mph - N/A   Mostly Cloudy
4:00 PM 86.0 °F 96.9 °F 77.0 °F 74% 29.89 in 6.2 mi ESE 12.7 mph - N/A   Scattered Clouds
4:30 PM 86.0 °F 95.1 °F 75.2 °F 70% 29.89 in 6.2 mi East 11.5 mph - N/A   Mostly Cloudy
5:00 PM 85 °F - 75 °F 65% 29.90 in 25 mi ESE 11.5 mph - -   Clear
5:00 PM 84.2 °F 92.3 °F 75.2 °F 74% 29.89 in 6.2 mi ESE 11.5 mph - N/A   Mostly Cloudy
5:30 PM 84.2 °F 92.3 °F 75.2 °F 74% 29.89 in 6.2 mi East 6.9 mph - N/A   Mostly Cloudy
6:00 PM 82.4 °F 89.5 °F 75.2 °F 79% 29.89 in 6.2 mi East 8.1 mph - N/A   Partly Cloudy
6:30 PM 82.4 °F 89.5 °F 75.2 °F 79% 29.92 in - ESE 6.9 mph - N/A   Clear
7:00 PM 82.4 °F 89.5 °F 75.2 °F 79% 29.92 in 6.2 mi East 5.8 mph - N/A   Partly Cloudy
7:30 PM 82.4 °F 89.5 °F 75.2 °F 79% 29.92 in - East 4.6 mph - N/A   Clear
8:00 PM 81 °F - 76 °F 79% 29.93 in 14 mi East 4.6 mph - -   Clear
8:00 PM 80.6 °F 86.2 °F 75.2 °F 84% 29.92 in 6.2 mi East 4.6 mph - N/A   Partly Cloudy
8:30 PM 80.6 °F 86.2 °F 75.2 °F 84% 29.92 in 6.2 mi East 6.9 mph - N/A   Partly Cloudy
9:00 PM 80.6 °F 86.2 °F 75.2 °F 84% 29.95 in - East 6.9 mph - N/A   Clear
9:30 PM 80.6 °F 86.2 °F 75.2 °F 84% 29.95 in 6.2 mi East 5.8 mph - N/A   Partly Cloudy
10:00 PM 80.6 °F 86.2 °F 75.2 °F 84% 29.95 in 6.2 mi ESE 4.6 mph - N/A   Partly Cloudy
10:30 PM 80.6 °F 86.2 °F 75.2 °F 84% 29.95 in 6.2 mi East 4.6 mph - N/A   Partly Cloudy
11:00 PM 80 °F - 76 °F 83% 29.95 in 12 mi ESE 4.6 mph - -   Clear
11:00 PM 80.6 °F 86.2 °F 75.2 °F 84% 29.95 in 6.2 mi ESE 4.6 mph - N/A   Partly Cloudy
11:30 PM 80.6 °F 87.1 °F 77.0 °F 89% 29.95 in 6.2 mi East 5.8 mph - N/A   Scattered Clouds